• en France
  • Liste des pays
  • À 7 jours
  • Température de l'eau
  • Carte satellitaire
  • Carte météo
  • Widgets météo
  • user-avatar
    Se connecter

    Météo par heure à Man

    Ce jour, 18 Décembre, Lundi

    Heure Température Précipitation Vent Pression Humidité
    00:00 +22°C° 0 mm 0 m/s 726 mmHg 40%
    01:00 +21°C° 0 mm 0 m/s 725 mmHg 42%
    02:00 +21°C° 0 mm 0 m/s 725 mmHg 44%
    03:00 +21°C° 0 mm 0 m/s 725 mmHg 46%
    04:00 +22°C° 0 mm 1 m/s 725 mmHg 48%
    05:00 +23°C° 0 mm 1 m/s 725 mmHg 57%
    06:00 +24°C° 0 mm 1 m/s 726 mmHg 55%
    07:00 +26°C° 0 mm 1 m/s 726 mmHg 52%
    08:00 +27°C° 0 mm 1 m/s 726 mmHg 50%
    09:00 +31°C° 0 mm 1 m/s 726 mmHg 41%
    10:00 +34°C° 0 mm 1 m/s 726 mmHg 32%
    11:00 +36°C° 0 mm 1 m/s 726 mmHg 30%
    12:00 +37°C° 0 mm 1 m/s 725 mmHg 27%
    13:00 +36°C° 0 mm 0 m/s 724 mmHg 24%
    14:00 +36°C° 0 mm 0 m/s 724 mmHg 20%
    15:00 +34°C° 0 mm 0 m/s 723 mmHg 25%
    16:00 +31°C° 0 mm 0 m/s 723 mmHg 30%
    17:00 +29°C° 0 mm 0 m/s 723 mmHg 35%
    18:00 +27°C° 0 mm 0 m/s 723 mmHg 38%
    19:00 +26°C° 0 mm 0 m/s 724 mmHg 41%
    20:00 +25°C° 0 mm 0 m/s 724 mmHg 43%
    21:00 +26°C° 0 mm 1 m/s 724 mmHg 49%
    22:00 +26°C° 0 mm 1 m/s 725 mmHg 55%
    23:00 +25°C° 0 mm 1 m/s 725 mmHg 61%

    Demain, 19 Décembre, Mardi

    Heure Température Précipitation Vent Pression Humidité
    00:00 +25°C° 0 mm 1 m/s 725 mmHg 69%
    01:00 +25°C° 0 mm 1 m/s 724 mmHg 77%
    02:00 +24°C° 0 mm 1 m/s 724 mmHg 85%
    03:00 +24°C° 0 mm 1 m/s 724 mmHg 87%
    04:00 +24°C° 0 mm 1 m/s 725 mmHg 89%
    05:00 +24°C° 0 mm 1 m/s 725 mmHg 92%
    06:00 +25°C° 0 mm 1 m/s 725 mmHg 86%
    07:00 +26°C° 0 mm 1 m/s 726 mmHg 80%
    08:00 +28°C° 0 mm 1 m/s 726 mmHg 74%
    09:00 +30°C° 0 mm 1 m/s 726 mmHg 64%
    10:00 +32°C° 0 mm 1 m/s 726 mmHg 54%
    11:00 +34°C° 0 mm 1 m/s 726 mmHg 44%
    12:00 +35°C° 0 mm 1 m/s 725 mmHg 40%
    13:00 +36°C° 0 mm 1 m/s 724 mmHg 36%
    14:00 +36°C° 0 mm 1 m/s 723 mmHg 32%
    15:00 +35°C° 0 mm 1 m/s 723 mmHg 36%
    16:00 +31°C° 0 mm 0 m/s 723 mmHg 40%
    17:00 +29°C° 0 mm 0 m/s 723 mmHg 45%
    18:00 +28°C° 0 mm 0 m/s 724 mmHg 47%
    19:00 +27°C° 0 mm 0 m/s 724 mmHg 50%
    20:00 +26°C° 0 mm 0 m/s 725 mmHg 53%
    21:00 +27°C° 0 mm 1 m/s 725 mmHg 59%
    22:00 +26°C° 0 mm 1 m/s 725 mmHg 65%
    23:00 +25°C° 0 mm 1 m/s 725 mmHg 71%

    Après-demain, 20 Décembre, Mercredi

    Heure Température Précipitation Vent Pression Humidité
    00:00 +25°C° 0 mm 1 m/s 725 mmHg 76%
    01:00 +24°C° 0 mm 1 m/s 724 mmHg 82%
    02:00 +24°C° 0 mm 1 m/s 724 mmHg 88%
    03:00 +24°C° 0 mm 1 m/s 724 mmHg 89%
    04:00 +24°C° 0 mm 1 m/s 724 mmHg 91%
    05:00 +24°C° 0 mm 1 m/s 724 mmHg 92%
    06:00 +25°C° 0 mm 1 m/s 725 mmHg 86%
    07:00 +26°C° 0 mm 1 m/s 725 mmHg 81%
    08:00 +27°C° 0 mm 1 m/s 726 mmHg 75%
    09:00 +30°C° 0 mm 1 m/s 726 mmHg 63%
    10:00 +32°C° 0 mm 1 m/s 726 mmHg 52%
    11:00 +35°C° 0 mm 1 m/s 726 mmHg 41%
    12:00 +36°C° 0 mm 1 m/s 725 mmHg 37%
    13:00 +35°C° 0 mm 0 m/s 724 mmHg 33%
    14:00 +35°C° 0 mm 0 m/s 723 mmHg 28%
    15:00 +33°C° 0 mm 0 m/s 723 mmHg 33%
    16:00 +31°C° 0 mm 0 m/s 723 mmHg 38%
    17:00 +29°C° 0 mm 0 m/s 723 mmHg 43%
    18:00 +28°C° 0 mm 0 m/s 724 mmHg 46%
    19:00 +27°C° 0 mm 0 m/s 724 mmHg 49%
    20:00 +26°C° 0 mm 0 m/s 725 mmHg 52%
    21:00 +27°C° 0 mm 1 m/s 725 mmHg 57%
    22:00 +26°C° 0 mm 1 m/s 725 mmHg 62%
    23:00 +26°C° 0 mm 1 m/s 725 mmHg 67%

    21 Décembre, Jeudi

    Heure Température Précipitation Vent Pression Humidité
    00:00 +25°C° 0 mm 1 m/s 725 mmHg 72%
    01:00 +24°C° 0 mm 1 m/s 724 mmHg 78%
    02:00 +24°C° 0 mm 1 m/s 724 mmHg 83%
    03:00 +24°C° 0 mm 1 m/s 724 mmHg 86%
    04:00 +23°C° 0 mm 1 m/s 724 mmHg 90%
    05:00 +23°C° 0 mm 1 m/s 725 mmHg 93%
    06:00 +24°C° 0,1 mm 1 m/s 725 mmHg 86%
    07:00 +26°C° 0,1 mm 1 m/s 726 mmHg 80%
    08:00 +28°C° 0,1 mm 1 m/s 727 mmHg 73%
    09:00 +31°C° 0 mm 1 m/s 726 mmHg 61%
    10:00 +31°C° 0 mm 0 m/s 726 mmHg 48%
    11:00 +34°C° 0 mm 0 m/s 726 mmHg 35%
    12:00 +36°C° 0 mm 1 m/s 725 mmHg 35%
    13:00 +36°C° 0 mm 1 m/s 724 mmHg 35%
    14:00 +36°C° 0 mm 1 m/s 723 mmHg 35%
    15:00 +34°C° 0 mm 1 m/s 723 mmHg 40%
    16:00 +33°C° 0 mm 1 m/s 724 mmHg 45%
    17:00 +31°C° 0 mm 1 m/s 724 mmHg 50%
    18:00 +30°C° 0,4 mm 1 m/s 724 mmHg 58%
    19:00 +28°C° 0,4 mm 1 m/s 725 mmHg 65%
    20:00 +27°C° 0,4 mm 1 m/s 726 mmHg 72%
    21:00 +24°C° 0,8 mm 0 m/s 726 mmHg 78%
    22:00 +23°C° 0,8 mm 0 m/s 726 mmHg 84%
    23:00 +22°C° 0,8 mm 0 m/s 726 mmHg 90%

    22 Décembre, Vendredi

    Heure Température Précipitation Vent Pression Humidité
    00:00 +22°C° 0,2 mm 0 m/s 726 mmHg 90%
    01:00 +22°C° 0,2 mm 0 m/s 725 mmHg 91%
    02:00 +22°C° 0,2 mm 0 m/s 725 mmHg 92%
    03:00 +21°C° 0,1 mm 0 m/s 725 mmHg 91%
    04:00 +21°C° 0,1 mm 0 m/s 725 mmHg 90%
    05:00 +21°C° 0,1 mm 0 m/s 726 mmHg 89%
    06:00 +24°C° 0 mm 1 m/s 726 mmHg 79%
    07:00 +25°C° 0 mm 1 m/s 727 mmHg 69%
    08:00 +26°C° 0 mm 1 m/s 727 mmHg 60%
    09:00 +28°C° 0 mm 2 m/s 727 mmHg 48%
    10:00 +30°C° 0 mm 2 m/s 727 mmHg 36%
    11:00 +32°C° 0 mm 2 m/s 726 mmHg 25%
    12:00 +34°C° 0 mm 2 m/s 726 mmHg 22%
    13:00 +35°C° 0 mm 2 m/s 725 mmHg 20%
    14:00 +35°C° 0 mm 2 m/s 724 mmHg 18%
    15:00 +32°C° 0 mm 1 m/s 724 mmHg 23%
    16:00 +31°C° 0 mm 1 m/s 724 mmHg 27%
    17:00 +29°C° 0 mm 1 m/s 724 mmHg 32%
    18:00 +25°C° 0 mm 0 m/s 724 mmHg 33%
    19:00 +24°C° 0 mm 0 m/s 725 mmHg 34%
    20:00 +23°C° 0 mm 0 m/s 726 mmHg 35%
    21:00 +22°C° 0 mm 0 m/s 726 mmHg 36%
    22:00 +22°C° 0 mm 0 m/s 725 mmHg 37%
    23:00 +21°C° 0 mm 0 m/s 725 mmHg 38%

    23 Décembre, Samedi

    Heure Température Précipitation Vent Pression Humidité
    00:00 +23°C° 0 mm 1 m/s 725 mmHg 40%
    01:00 +22°C° 0 mm 1 m/s 725 mmHg 42%
    02:00 +21°C° 0 mm 1 m/s 725 mmHg 44%
    03:00 +21°C° 0 mm 1 m/s 725 mmHg 43%
    04:00 +20°C° 0 mm 1 m/s 725 mmHg 43%
    05:00 +20°C° 0 mm 1 m/s 725 mmHg 42%
    06:00 +21°C° 0 mm 1 m/s 726 mmHg 38%
    07:00 +23°C° 0 mm 1 m/s 727 mmHg 33%
    08:00 +25°C° 0 mm 1 m/s 727 mmHg 28%
    09:00 +27°C° 0 mm 1 m/s 727 mmHg 25%
    10:00 +29°C° 0 mm 1 m/s 727 mmHg 21%
    11:00 +31°C° 0 mm 2 m/s 726 mmHg 18%
    12:00 +32°C° 0 mm 1 m/s 725 mmHg 17%
    13:00 +33°C° 0 mm 1 m/s 725 mmHg 17%
    14:00 +34°C° 0 mm 1 m/s 724 mmHg 16%
    15:00 +32°C° 0 mm 1 m/s 724 mmHg 21%
    16:00 +30°C° 0 mm 1 m/s 724 mmHg 26%
    17:00 +26°C° 0 mm 0 m/s 724 mmHg 30%
    18:00 +24°C° 0 mm 0 m/s 724 mmHg 31%
    19:00 +23°C° 0 mm 0 m/s 725 mmHg 32%
    20:00 +22°C° 0 mm 0 m/s 725 mmHg 32%
    21:00 +21°C° 0 mm 0 m/s 725 mmHg 33%
    22:00 +21°C° 0 mm 0 m/s 725 mmHg 34%
    23:00 +20°C° 0 mm 0 m/s 725 mmHg 34%
    Voir plus